�������l�o���
Date,Time,MP-1(��Sv/h),MP-2(��Sv/h),MP-3(��Sv/h),MP-4(��Sv/h),MP-5(��Sv/h),MP-6(��Sv/h),MP-7(��Sv/h),MP-8(��Sv/h),����,����(m/s),���J
2023/09/18,00:00,0.533,0.807,0.492,0.997,0.712,0.322,0.573,0.533,��쐼,4.8,��
2023/09/18,00:10,0.531,0.804,0.493,0.995,0.711,0.323,0.571,0.532,��,4.7,��
2023/09/18,00:20,0.532,0.807,0.492,0.998,0.710,0.323,0.573,0.534,��,3.9,��
2023/09/18,00:30,0.532,0.804,0.493,0.998,0.709,0.323,0.574,0.532,��쐼,3.4,��
2023/09/18,00:40,0.531,0.805,0.492,0.994,0.708,0.323,0.574,0.533,�쐼,2.3,��
2023/09/18,00:50,0.531,0.808,0.492,0.996,0.709,0.323,0.572,0.532,��쐼,2.8,��
2023/09/18,01:00,0.533,0.805,0.492,0.999,0.711,0.322,0.573,0.533,��쐼,2.0,��
2023/09/18,01:10,0.534,0.804,0.493,0.999,0.712,0.322,0.572,0.533,���쐼,1.5,��
2023/09/18,01:20,0.531,0.807,0.493,0.997,0.711,0.321,0.574,0.532,��쐼,1.4,��
2023/09/18,01:30,0.533,0.808,0.493,0.998,0.711,0.324,0.572,0.533,�쐼,1.5,��
2023/09/18,01:40,0.529,0.805,0.492,0.998,0.709,0.323,0.573,0.533,��쐼,1.7,��
2023/09/18,01:50,0.533,0.806,0.492,0.998,0.710,0.324,0.575,0.532,�쐼,2.3,��
2023/09/18,02:00,0.533,0.806,0.493,0.997,0.709,0.324,0.574,0.531,�쐼,2.3,��
2023/09/18,02:10,0.532,0.806,0.492,0.999,0.710,0.323,0.574,0.534,��쐼,3.7,��
2023/09/18,02:20,0.533,0.807,0.492,0.998,0.712,0.322,0.573,0.533,�쐼,3.6,��
2023/09/18,02:30,0.533,0.807,0.493,1.000,0.711,0.323,0.572,0.532,��쐼,3.5,��
2023/09/18,02:40,0.533,0.807,0.491,0.999,0.709,0.323,0.571,0.533,��쐼,2.9,��
2023/09/18,02:50,0.533,0.805,0.492,0.999,0.709,0.322,0.573,0.532,��쐼,3.0,��
2023/09/18,03:00,0.535,0.803,0.492,1.000,0.710,0.322,0.573,0.533,��,3.5,��
2023/09/18,03:10,0.534,0.806,0.491,1.000,0.711,0.323,0.573,0.532,��쐼,3.2,��
2023/09/18,03:20,0.534,0.806,0.492,0.998,0.712,0.323,0.573,0.533,��쐼,3.5,��
2023/09/18,03:30,0.532,0.806,0.492,1.000,0.712,0.322,0.573,0.532,��,4.0,��
2023/09/18,03:40,0.533,0.807,0.491,0.998,0.712,0.322,0.573,0.533,��,4.1,��
2023/09/18,03:50,0.532,0.805,0.492,1.000,0.711,0.322,0.573,0.533,��,5.1,��
2023/09/18,04:00,0.533,0.805,0.493,1.001,0.711,0.324,0.573,0.533,��,5.1,��
2023/09/18,04:10,0.533,0.807,0.493,0.999,0.712,0.322,0.573,0.533,��,5.7,��
2023/09/18,04:20,0.534,0.807,0.493,0.999,0.708,0.323,0.574,0.533,��,5.3,��
2023/09/18,04:30,0.533,0.807,0.493,0.998,0.711,0.322,0.574,0.532,��,5.5,��
2023/09/18,04:40,0.534,0.806,0.492,0.999,0.710,0.323,0.574,0.532,��,5.0,��
2023/09/18,04:50,0.533,0.808,0.491,0.999,0.711,0.323,0.573,0.532,��쐼,5.1,��
2023/09/18,05:00,0.533,0.806,0.493,1.001,0.711,0.323,0.573,0.533,��쐼,2.5,��
2023/09/18,05:10,0.533,0.806,0.492,0.999,0.711,0.323,0.574,0.532,���쐼,1.9,��
2023/09/18,05:20,0.533,0.805,0.493,0.999,0.711,0.321,0.574,0.534,�쐼,1.9,��
2023/09/18,05:30,0.532,0.806,0.493,0.997,0.710,0.322,0.574,0.533,��쐼,3.0,��
2023/09/18,05:40,0.531,0.806,0.491,0.998,0.711,0.323,0.575,0.533,��,2.3,��
2023/09/18,05:50,0.531,0.808,0.493,1.000,0.711,0.323,0.574,0.532,��쓌,1.4,��
2023/09/18,06:00,0.533,0.804,0.493,0.999,0.712,0.323,0.573,0.532,��쓌,2.0,��
2023/09/18,06:10,0.533,0.808,0.494,1.002,0.711,0.323,0.573,0.533,��,2.5,��
2023/09/18,06:20,0.534,0.805,0.491,1.000,0.711,0.322,0.575,0.534,��,3.0,��
2023/09/18,06:30,0.533,0.804,0.493,0.999,0.712,0.322,0.574,0.533,��,2.8,��
2023/09/18,06:40,0.530,0.806,0.491,0.998,0.711,0.323,0.574,0.533,��,2.6,��
2023/09/18,06:50,0.531,0.806,0.493,1.000,0.709,0.322,0.575,0.533,��,2.9,��
2023/09/18,07:00,0.532,0.804,0.492,0.998,0.711,0.323,0.575,0.533,��,2.2,��
2023/09/18,07:10,0.532,0.804,0.491,0.999,0.710,0.322,0.574,0.534,�쐼,0.9,��
2023/09/18,07:20,0.536,0.806,0.494,0.997,0.711,0.324,0.575,0.531,�k�k��,1.2,��
2023/09/18,07:30,0.533,0.805,0.492,1.000,0.710,0.323,0.575,0.533,-,CALM,��
2023/09/18,07:40,0.532,0.805,0.493,0.997,0.711,0.323,0.575,0.533,-,CALM,��
2023/09/18,07:50,0.533,0.805,0.492,0.997,0.710,0.321,0.576,0.534,-,CALM,��
2023/09/18,08:00,0.533,0.805,0.492,0.997,0.711,0.322,0.575,0.532,-,CALM,��
2023/09/18,08:10,0.533,0.805,0.493,0.999,0.709,0.322,0.576,0.532,���쓌,0.6,��
2023/09/18,08:20,0.531,0.804,0.492,1.000,0.710,0.323,0.576,0.534,-,CALM,��
2023/09/18,08:30,0.533,0.804,0.494,1.001,0.709,0.322,0.577,0.534,��,1.1,��
2023/09/18,08:40,0.532,0.806,0.493,1.000,0.711,0.324,0.576,0.533,���쓌,1.2,��
2023/09/18,08:50,0.533,0.806,0.494,1.000,0.713,0.323,0.577,0.534,�쓌,2.5,��
2023/09/18,09:00,0.532,0.806,0.491,0.996,0.712,0.323,0.575,0.533,�쓌,3.4,��
2023/09/18,09:10,0.533,0.808,0.494,0.999,0.712,0.322,0.577,0.533,��쓌,3.6,��
2023/09/18,09:20,0.531,0.809,0.492,1.000,0.712,0.323,0.577,0.535,��쓌,3.1,��
2023/09/18,09:30,0.533,0.809,0.492,0.999,0.711,0.323,0.577,0.532,��쓌,3.6,��
2023/09/18,09:40,0.533,0.807,0.491,0.999,0.711,0.322,0.576,0.530,��쓌,3.9,��
2023/09/18,09:50,0.534,0.808,0.490,0.999,0.712,0.322,0.574,0.532,��쓌,4.3,��
2023/09/18,10:00,0.534,0.809,0.490,0.997,0.713,0.324,0.575,0.532,��쓌,4.6,��
2023/09/18,10:10,0.534,0.808,0.491,0.999,0.710,0.321,0.575,0.531,��쓌,7.1,��
2023/09/18,10:20,0.532,0.807,0.491,0.998,0.710,0.322,0.575,0.531,��쓌,6.4,��
2023/09/18,10:30,0.531,0.808,0.493,1.000,0.712,0.322,0.574,0.533,��쓌,5.0,��
2023/09/18,10:40,0.534,0.807,0.491,0.998,0.712,0.322,0.576,0.534,��쓌,5.1,��
2023/09/18,10:50,0.532,0.810,0.492,1.000,0.712,0.323,0.575,0.531,��쓌,5.0,��
2023/09/18,11:00,0.533,0.810,0.493,1.000,0.714,0.322,0.575,0.531,��쓌,5.3,��
2023/09/18,11:10,0.534,0.808,0.493,0.999,0.712,0.323,0.577,0.531,��쓌,5.3,��
2023/09/18,11:20,0.535,0.810,0.493,0.999,0.712,0.323,0.575,0.533,��쓌,6.2,��
2023/09/18,11:30,0.537,0.809,0.495,1.001,0.714,0.325,0.575,0.532,��쓌,6.8,��
2023/09/18,11:40,0.535,0.810,0.495,1.001,0.714,0.323,0.574,0.531,��쓌,7.5,��
2023/09/18,11:50,0.534,0.809,0.493,1.001,0.713,0.323,0.574,0.534,��,7.7,��
2023/09/18,12:00,0.535,0.811,0.496,0.999,0.713,0.322,0.575,0.533,��,6.3,��
2023/09/18,12:10,0.536,0.811,0.495,1.002,0.717,0.324,0.574,0.532,��,6.0,��
2023/09/18,12:20,0.534,0.811,0.495,1.002,0.716,0.323,0.575,0.533,��,6.6,��
2023/09/18,12:30,0.535,0.813,0.495,1.004,0.715,0.325,0.575,0.533,��쓌,7.2,��
2023/09/18,12:40,0.534,0.811,0.496,1.001,0.717,0.323,0.575,0.533,��,7.6,�L
2023/09/18,12:50,0.534,0.812,0.495,1.002,0.713,0.323,0.576,0.533,��,7.2,��
2023/09/18,13:00,0.534,0.811,0.494,1.003,0.714,0.324,0.576,0.532,��,5.6,��
2023/09/18,13:10,0.535,0.811,0.495,1.003,0.715,0.325,0.577,0.534,��,4.6,�L
2023/09/18,13:20,0.535,0.812,0.493,1.001,0.717,0.324,0.576,0.534,��,5.3,�L
2023/09/18,13:30,0.535,0.812,0.496,1.001,0.716,0.325,0.575,0.535,��,6.0,��
2023/09/18,13:40,0.535,0.811,0.495,1.004,0.718,0.325,0.575,0.535,��쓌,5.3,��
2023/09/18,13:50,0.536,0.812,0.495,1.003,0.717,0.325,0.575,0.533,��,6.3,��
2023/09/18,14:00,0.534,0.812,0.497,1.002,0.717,0.325,0.576,0.535,��,6.2,��
2023/09/18,14:10,0.535,0.813,0.495,1.005,0.716,0.324,0.575,0.534,��,4.6,��
2023/09/18,14:20,0.536,0.814,0.497,1.004,0.717,0.325,0.574,0.533,��,5.2,��
2023/09/18,14:30,0.537,0.813,0.497,1.002,0.717,0.324,0.576,0.535,��쓌,5.9,��
2023/09/18,14:40,0.536,0.814,0.494,1.005,0.718,0.324,0.576,0.534,��,5.8,��
2023/09/18,14:50,0.536,0.812,0.496,1.004,0.718,0.324,0.576,0.534,��,6.2,��
2023/09/18,15:00,0.536,0.814,0.496,1.003,0.719,0.324,0.576,0.532,��,6.5,��
2023/09/18,15:10,0.537,0.813,0.498,1.004,0.718,0.324,0.576,0.533,��,6.2,��
2023/09/18,15:20,0.534,0.814,0.496,1.004,0.718,0.325,0.576,0.534,��,5.0,��
2023/09/18,15:30,0.538,0.812,0.497,1.003,0.717,0.324,0.575,0.534,��,5.9,��
2023/09/18,15:40,0.533,0.813,0.495,1.003,0.717,0.323,0.574,0.533,��,6.4,��
2023/09/18,15:50,0.536,0.811,0.497,1.003,0.718,0.323,0.576,0.534,��쓌,7.5,��
2023/09/18,16:00,0.535,0.812,0.495,1.004,0.718,0.322,0.576,0.532,��,7.6,��
2023/09/18,16:10,0.534,0.812,0.494,1.004,0.717,0.323,0.575,0.532,��,7.4,��
2023/09/18,16:20,0.535,0.812,0.494,1.003,0.718,0.324,0.574,0.533,��,8.0,��
2023/09/18,16:30,0.535,0.811,0.493,1.004,0.718,0.323,0.574,0.532,��쓌,7.8,��
2023/09/18,16:40,0.533,0.812,0.495,1.005,0.717,0.322,0.573,0.533,��,6.6,��
2023/09/18,16:50,0.535,0.811,0.496,1.005,0.717,0.323,0.574,0.534,��,5.9,��
2023/09/18,17:00,0.535,0.813,0.495,1.004,0.718,0.323,0.574,0.533,��,4.7,��
2023/09/18,17:10,0.535,0.811,0.495,1.002,0.717,0.323,0.574,0.534,��,6.2,��
2023/09/18,17:20,0.536,0.811,0.494,1.002,0.717,0.322,0.574,0.533,��,6.9,��
2023/09/18,17:30,0.535,0.812,0.495,1.001,0.716,0.321,0.573,0.533,��,6.8,��
2023/09/18,17:40,0.537,0.813,0.494,1.002,0.716,0.323,0.575,0.532,��,6.8,��
2023/09/18,17:50,0.536,0.811,0.494,1.002,0.715,0.324,0.574,0.533,��,4.7,��
2023/09/18,18:00,0.535,0.812,0.494,1.002,0.716,0.322,0.573,0.534,��쐼,4.9,��
2023/09/18,18:10,0.537,0.812,0.494,1.001,0.717,0.323,0.575,0.532,�쐼,2.3,��
2023/09/18,18:20,0.536,0.811,0.494,1.002,0.717,0.323,0.574,0.534,��,4.8,��
2023/09/18,18:30,0.536,0.812,0.494,1.003,0.716,0.323,0.574,0.533,��,4.8,��
2023/09/18,18:40,0.534,0.814,0.495,1.001,0.713,0.324,0.575,0.535,��,5.8,��
2023/09/18,18:50,0.536,0.812,0.495,1.002,0.717,0.324,0.575,0.533,��,4.7,��
2023/09/18,19:00,0.536,0.812,0.494,1.001,0.717,0.323,0.574,0.534,��,3.8,��
2023/09/18,19:10,0.535,0.811,0.494,1.003,0.715,0.324,0.573,0.533,��쐼,3.7,�L
2023/09/18,19:20,0.535,0.812,0.495,1.003,0.718,0.323,0.576,0.534,��,4.0,��
2023/09/18,19:30,0.537,0.814,0.494,1.001,0.718,0.324,0.575,0.533,��쐼,5.1,��
2023/09/18,19:40,0.536,0.810,0.495,1.004,0.718,0.324,0.576,0.534,��쐼,5.0,��
2023/09/18,19:50,0.537,0.813,0.495,1.004,0.717,0.323,0.575,0.534,��,4.6,��
2023/09/18,20:00,0.536,0.810,0.495,1.004,0.718,0.324,0.574,0.534,��쐼,4.0,��
2023/09/18,20:10,0.537,0.812,0.496,1.004,0.718,0.325,0.574,0.534,��쐼,4.2,��
2023/09/18,20:20,0.537,0.813,0.496,1.005,0.717,0.325,0.576,0.534,��쐼,3.2,��
2023/09/18,20:30,0.536,0.814,0.496,1.005,0.718,0.325,0.575,0.534,��쐼,3.5,��
2023/09/18,20:40,0.536,0.814,0.496,1.005,0.718,0.325,0.575,0.533,�쐼,3.3,��
2023/09/18,20:50,0.538,0.814,0.497,1.004,0.719,0.325,0.575,0.533,�쐼,3.4,��
2023/09/18,21:00,0.538,0.812,0.495,1.004,0.719,0.325,0.575,0.534,�k�k��,2.3,��
2023/09/18,21:10,0.538,0.813,0.495,1.008,0.719,0.325,0.575,0.535,�k,3.5,��
2023/09/18,21:20,0.539,0.814,0.496,1.004,0.719,0.326,0.574,0.532,�k,3.5,��
2023/09/18,21:30,0.537,0.815,0.496,1.006,0.717,0.325,0.575,0.534,�k,3.8,��
2023/09/18,21:40,0.536,0.814,0.495,1.003,0.718,0.325,0.577,0.533,�k,3.5,��
2023/09/18,21:50,0.537,0.812,0.495,1.004,0.719,0.325,0.574,0.533,�k�k��,2.6,��
2023/09/18,22:00,0.536,0.812,0.497,1.006,0.718,0.325,0.574,0.533,�k�k��,1.4,��
2023/09/18,22:10,0.537,0.812,0.496,1.006,0.718,0.326,0.576,0.534,�k�k��,1.7,��
2023/09/18,22:20,0.536,0.813,0.496,1.003,0.716,0.324,0.576,0.533,�k�k��,2.0,��
2023/09/18,22:30,0.536,0.814,0.495,1.005,0.718,0.324,0.574,0.532,�k�k��,2.5,��
2023/09/18,22:40,0.537,0.811,0.495,1.005,0.717,0.323,0.577,0.533,�k�k��,2.0,��
2023/09/18,22:50,0.537,0.813,0.495,1.004,0.718,0.326,0.575,0.533,�k�k��,2.2,��
2023/09/18,23:00,0.538,0.815,0.494,1.004,0.720,0.324,0.576,0.532,�k,2.0,��
2023/09/18,23:10,0.536,0.811,0.495,1.003,0.716,0.325,0.574,0.533,�k�k��,2.0,��
2023/09/18,23:20,0.537,0.813,0.494,1.004,0.720,0.324,0.575,0.533,�k,2.3,��
2023/09/18,23:30,0.534,0.813,0.495,1.003,0.718,0.324,0.576,0.534,�k,2.0,��
2023/09/18,23:40,0.535,0.813,0.496,1.001,0.717,0.325,0.575,0.533,�k,3.1,��
2023/09/18,23:50,0.537,0.812,0.495,1.001,0.718,0.325,0.574,0.533,�k�k��,2.0,��
